Year,Month,Day,Hour,Minute,Value (Times are PST for temperature in C)
2010,03,31,00,00,2.40
2010,03,31,00,01,2.40
2010,03,31,00,02,2.40
2010,03,31,00,03,2.40
2010,03,31,00,04,2.40
2010,03,31,00,05,2.40
2010,03,31,00,06,2.40
2010,03,31,00,07,2.40
2010,03,31,00,08,2.40
2010,03,31,00,09,2.30
2010,03,31,00,10,2.30
2010,03,31,00,11,2.30
2010,03,31,00,12,2.30
2010,03,31,00,13,2.30
2010,03,31,00,14,2.30
2010,03,31,00,15,2.30
2010,03,31,00,16,2.30
2010,03,31,00,17,2.30
2010,03,31,00,18,2.30
2010,03,31,00,19,2.20
2010,03,31,00,20,2.20
2010,03,31,00,21,2.20
2010,03,31,00,22,2.20
2010,03,31,00,23,2.20
2010,03,31,00,24,2.20
2010,03,31,00,25,2.20
2010,03,31,00,26,2.20
2010,03,31,00,27,2.20
2010,03,31,00,28,2.20
2010,03,31,00,29,2.20
2010,03,31,00,30,2.10
2010,03,31,00,31,2.10
2010,03,31,00,32,2.10
2010,03,31,00,33,2.10
2010,03,31,00,34,2.10
2010,03,31,00,35,2.10
2010,03,31,00,36,2.10
2010,03,31,00,37,2.10
2010,03,31,00,38,2.10
2010,03,31,00,39,2.00
2010,03,31,00,40,2.00
2010,03,31,00,41,2.00
2010,03,31,00,42,2.00
2010,03,31,00,43,2.00
2010,03,31,00,44,2.00
2010,03,31,00,45,2.00
2010,03,31,00,46,2.00
2010,03,31,00,47,2.00
2010,03,31,00,48,2.00
2010,03,31,00,49,2.00
2010,03,31,00,50,2.00
2010,03,31,00,51,2.00
2010,03,31,00,52,1.90
2010,03,31,00,53,1.90
2010,03,31,00,54,1.90
2010,03,31,00,55,1.90
2010,03,31,00,56,1.90
2010,03,31,00,57,1.90
2010,03,31,00,58,1.90
2010,03,31,00,59,1.90
2010,03,31,01,00,1.90
2010,03,31,01,01,1.80
2010,03,31,01,02,1.80
2010,03,31,01,03,1.80
2010,03,31,01,04,1.80
2010,03,31,01,05,1.80
2010,03,31,01,06,1.80
2010,03,31,01,07,1.80
2010,03,31,01,08,1.80
2010,03,31,01,09,1.80
2010,03,31,01,10,1.80
2010,03,31,01,11,1.80
2010,03,31,01,12,1.80
2010,03,31,01,13,1.70
2010,03,31,01,14,1.70
2010,03,31,01,15,1.70
2010,03,31,01,16,1.70
2010,03,31,01,17,1.70
2010,03,31,01,18,1.70
2010,03,31,01,19,1.70
2010,03,31,01,20,1.70
2010,03,31,01,21,1.70
2010,03,31,01,22,1.70
2010,03,31,01,23,1.70
2010,03,31,01,24,1.70
2010,03,31,01,25,1.70
2010,03,31,01,26,1.70
2010,03,31,01,27,1.70
2010,03,31,01,28,1.70
2010,03,31,01,29,1.70
2010,03,31,01,30,1.70
2010,03,31,01,31,1.70
2010,03,31,01,32,1.70
2010,03,31,01,33,1.70
2010,03,31,01,34,1.70
2010,03,31,01,35,1.70
2010,03,31,01,36,1.70
2010,03,31,01,37,1.70
2010,03,31,01,38,1.70
2010,03,31,01,39,1.70
2010,03,31,01,40,1.70
2010,03,31,01,41,1.70
2010,03,31,01,42,1.70
2010,03,31,01,43,1.70
2010,03,31,01,44,1.70
2010,03,31,01,45,1.70
2010,03,31,01,46,1.70
2010,03,31,01,47,1.70
2010,03,31,01,48,1.70
2010,03,31,01,49,1.70
2010,03,31,01,50,1.70
2010,03,31,01,51,1.70
2010,03,31,01,52,1.70
2010,03,31,01,53,1.70
2010,03,31,01,54,1.70
2010,03,31,01,55,1.70
2010,03,31,01,56,1.70
2010,03,31,01,57,1.70
2010,03,31,01,58,1.70
2010,03,31,01,59,1.70
2010,03,31,02,00,1.70
2010,03,31,02,01,1.70
2010,03,31,02,02,1.70
2010,03,31,02,03,1.70
2010,03,31,02,04,1.70
2010,03,31,02,05,1.70
2010,03,31,02,06,1.70
2010,03,31,02,07,1.70
2010,03,31,02,08,1.70
2010,03,31,02,09,1.70
2010,03,31,02,10,1.70
2010,03,31,02,11,1.60
2010,03,31,02,12,1.60
2010,03,31,02,13,1.60
2010,03,31,02,14,1.60
2010,03,31,02,15,1.60
2010,03,31,02,16,1.60
2010,03,31,02,17,1.60
2010,03,31,02,18,1.60
2010,03,31,02,19,1.60
2010,03,31,02,20,1.60
2010,03,31,02,21,1.60
2010,03,31,02,22,1.60
2010,03,31,02,23,1.60
2010,03,31,02,24,1.60
2010,03,31,02,25,1.60
2010,03,31,02,26,1.60
2010,03,31,02,27,1.60
2010,03,31,02,28,1.60
2010,03,31,02,29,1.60
2010,03,31,02,30,1.60
2010,03,31,02,31,1.50
2010,03,31,02,32,1.50
2010,03,31,02,33,1.50
2010,03,31,02,34,1.40
2010,03,31,02,35,1.40
2010,03,31,02,36,1.40
2010,03,31,02,37,1.30
2010,03,31,02,38,1.40
2010,03,31,02,39,1.40
2010,03,31,02,40,1.40
2010,03,31,02,41,1.40
2010,03,31,02,42,1.40
2010,03,31,02,43,1.40
2010,03,31,02,44,1.30
2010,03,31,02,45,1.30
2010,03,31,02,46,1.30
2010,03,31,02,47,1.40
2010,03,31,02,48,1.40
2010,03,31,02,49,1.40
2010,03,31,02,50,1.40
2010,03,31,02,51,1.40
2010,03,31,02,52,1.40
2010,03,31,02,53,1.40
2010,03,31,02,54,1.30
2010,03,31,02,55,1.30
2010,03,31,02,56,1.30
2010,03,31,02,57,1.30
2010,03,31,02,58,1.30
2010,03,31,02,59,1.30
2010,03,31,03,00,1.30
2010,03,31,03,01,1.30
2010,03,31,03,02,1.30
2010,03,31,03,03,1.30
2010,03,31,03,04,1.30
2010,03,31,03,05,1.30
2010,03,31,03,06,1.30
2010,03,31,03,07,1.30
2010,03,31,03,08,1.30
2010,03,31,03,09,1.40
2010,03,31,03,10,1.40
2010,03,31,03,11,1.50
2010,03,31,03,12,1.50
2010,03,31,03,13,1.50
2010,03,31,03,14,1.60
2010,03,31,03,15,1.60
2010,03,31,03,16,1.70
2010,03,31,03,17,1.70
2010,03,31,03,18,1.70
2010,03,31,03,19,1.70
2010,03,31,03,20,1.70
2010,03,31,03,21,1.70
2010,03,31,03,22,1.70
2010,03,31,03,23,1.70
2010,03,31,03,24,1.70
2010,03,31,03,25,1.70
2010,03,31,03,26,1.70
2010,03,31,03,27,1.70
2010,03,31,03,28,1.70
2010,03,31,03,29,1.70
2010,03,31,03,30,1.70
2010,03,31,03,31,1.60
2010,03,31,03,32,1.60
2010,03,31,03,33,1.60
2010,03,31,03,34,1.50
2010,03,31,03,35,1.50
2010,03,31,03,36,1.40
2010,03,31,03,37,1.40
2010,03,31,03,38,1.40
2010,03,31,03,39,1.40
2010,03,31,03,40,1.40
2010,03,31,03,41,1.40
2010,03,31,03,42,1.40
2010,03,31,03,43,1.40
2010,03,31,03,44,1.40
2010,03,31,03,45,1.40
2010,03,31,03,46,1.40
2010,03,31,03,47,1.40
2010,03,31,03,48,1.40
2010,03,31,03,49,1.40
2010,03,31,03,50,1.40
2010,03,31,03,51,1.40
2010,03,31,03,52,1.40
2010,03,31,03,53,1.40
2010,03,31,03,54,1.40
2010,03,31,03,55,1.40
2010,03,31,03,56,1.40
2010,03,31,03,57,1.40
2010,03,31,03,58,1.40
2010,03,31,03,59,1.40
2010,03,31,04,00,1.40
2010,03,31,04,01,1.40
2010,03,31,04,02,1.40
2010,03,31,04,03,1.30
2010,03,31,04,04,1.30
2010,03,31,04,05,1.30
2010,03,31,04,06,1.30
2010,03,31,04,07,1.30
2010,03,31,04,08,1.30
2010,03,31,04,09,1.30
2010,03,31,04,10,1.30
2010,03,31,04,11,1.30
2010,03,31,04,12,1.30
2010,03,31,04,13,1.30
2010,03,31,04,14,1.30
2010,03,31,04,15,1.30
2010,03,31,04,16,1.30
2010,03,31,04,17,1.30
2010,03,31,04,18,1.30
2010,03,31,04,19,1.30
2010,03,31,04,20,1.30
2010,03,31,04,21,1.30
2010,03,31,04,22,1.30
2010,03,31,04,23,1.30
2010,03,31,04,24,1.30
2010,03,31,04,25,1.30
2010,03,31,04,26,1.30
2010,03,31,04,27,1.30
2010,03,31,04,28,1.30
2010,03,31,04,29,1.30
2010,03,31,04,30,1.30
2010,03,31,04,31,1.30
2010,03,31,04,32,1.30
2010,03,31,04,33,1.30
2010,03,31,04,34,1.30
2010,03,31,04,35,1.30
2010,03,31,04,36,1.30
2010,03,31,04,37,1.30
2010,03,31,04,38,1.30
2010,03,31,04,39,1.30
2010,03,31,04,40,1.20
2010,03,31,04,41,1.20
2010,03,31,04,42,1.20
2010,03,31,04,43,1.20
2010,03,31,04,44,1.20
2010,03,31,04,45,1.20
2010,03,31,04,46,1.20
2010,03,31,04,47,1.20
2010,03,31,04,48,1.20
2010,03,31,04,49,1.20
2010,03,31,04,50,1.20
2010,03,31,04,51,1.20
2010,03,31,04,52,1.20
2010,03,31,04,53,1.20
2010,03,31,04,54,1.20
2010,03,31,04,55,1.20
2010,03,31,04,56,1.20
2010,03,31,04,57,1.20
2010,03,31,04,58,1.20
2010,03,31,04,59,1.10
2010,03,31,05,00,1.10
2010,03,31,05,01,1.10
2010,03,31,05,02,1.10
2010,03,31,05,03,1.10
2010,03,31,05,04,1.10
2010,03,31,05,05,1.10
2010,03,31,05,06,1.10
2010,03,31,05,07,1.10
2010,03,31,05,08,1.10
2010,03,31,05,09,1.10
2010,03,31,05,10,1.10
2010,03,31,05,11,1.00
2010,03,31,05,12,1.00
2010,03,31,05,13,1.00
2010,03,31,05,14,1.00
2010,03,31,05,15,1.00
2010,03,31,05,16,1.00
2010,03,31,05,17,0.90
2010,03,31,05,18,0.90
2010,03,31,05,19,0.90
2010,03,31,05,20,0.90
2010,03,31,05,21,0.90
2010,03,31,05,22,0.90
2010,03,31,05,23,0.90
2010,03,31,05,24,0.90
2010,03,31,05,25,0.90
2010,03,31,05,26,0.90
2010,03,31,05,27,0.90
2010,03,31,05,28,0.90
2010,03,31,05,29,0.90
2010,03,31,05,30,0.90
2010,03,31,05,31,0.90
2010,03,31,05,32,0.80
2010,03,31,05,33,0.80
2010,03,31,05,34,0.80
2010,03,31,05,35,0.80
2010,03,31,05,36,0.80
2010,03,31,05,37,0.80
2010,03,31,05,38,0.80
2010,03,31,05,39,0.80
2010,03,31,05,40,0.80
2010,03,31,05,41,0.80
2010,03,31,05,42,0.80
2010,03,31,05,43,0.80
2010,03,31,05,44,0.80
2010,03,31,05,45,0.80
2010,03,31,05,46,0.80
2010,03,31,05,47,0.80
2010,03,31,05,48,0.80
2010,03,31,05,49,0.80
2010,03,31,05,50,0.80
2010,03,31,05,51,0.80
2010,03,31,05,52,0.80
2010,03,31,05,53,0.80
2010,03,31,05,54,0.80
2010,03,31,05,55,0.80
2010,03,31,05,56,0.80
2010,03,31,05,57,0.80
2010,03,31,05,58,0.80
2010,03,31,05,59,0.80
2010,03,31,06,00,0.80
2010,03,31,06,01,0.80
2010,03,31,06,02,0.80
2010,03,31,06,03,0.80
2010,03,31,06,04,0.80
2010,03,31,06,05,0.80
2010,03,31,06,06,0.80
2010,03,31,06,07,0.80
2010,03,31,06,08,0.80
2010,03,31,06,09,0.80
2010,03,31,06,10,0.80
2010,03,31,06,11,0.80
2010,03,31,06,12,0.90
2010,03,31,06,13,0.90
2010,03,31,06,14,0.90
2010,03,31,06,15,0.90
2010,03,31,06,16,0.90
2010,03,31,06,17,0.90
2010,03,31,06,18,1.00
2010,03,31,06,19,1.00
2010,03,31,06,20,1.00
2010,03,31,06,21,1.00
2010,03,31,06,22,1.00
2010,03,31,06,23,1.10
2010,03,31,06,24,1.10
2010,03,31,06,25,1.10
2010,03,31,06,26,1.10
2010,03,31,06,27,1.10
2010,03,31,06,28,1.10
2010,03,31,06,29,1.10
2010,03,31,06,30,1.10
2010,03,31,06,31,1.10
2010,03,31,06,32,1.10
2010,03,31,06,33,1.20
2010,03,31,06,34,1.20
2010,03,31,06,35,1.20
2010,03,31,06,36,1.20
2010,03,31,06,37,1.20
2010,03,31,06,38,1.20
2010,03,31,06,39,1.20
2010,03,31,06,40,1.20
2010,03,31,06,41,1.30
2010,03,31,06,42,1.30
2010,03,31,06,43,1.30
2010,03,31,06,44,1.30
2010,03,31,06,45,1.30
2010,03,31,06,46,1.30
2010,03,31,06,47,1.30
2010,03,31,06,48,1.30
2010,03,31,06,49,1.30
2010,03,31,06,50,1.30
2010,03,31,06,51,1.30
2010,03,31,06,52,1.30
2010,03,31,06,53,1.30
2010,03,31,06,54,1.30
2010,03,31,06,55,1.30
2010,03,31,06,56,1.30
2010,03,31,06,57,1.30
2010,03,31,06,58,1.30
2010,03,31,06,59,1.30
2010,03,31,07,00,1.30
2010,03,31,07,01,1.30
2010,03,31,07,02,1.30
2010,03,31,07,03,1.30
2010,03,31,07,04,1.30
2010,03,31,07,05,1.30
2010,03,31,07,06,1.30
2010,03,31,07,07,1.30
2010,03,31,07,08,1.30
2010,03,31,07,09,1.30
2010,03,31,07,10,1.30
2010,03,31,07,11,1.30
2010,03,31,07,12,1.30
2010,03,31,07,13,1.30
2010,03,31,07,14,1.30
2010,03,31,07,15,1.30
2010,03,31,07,16,1.30
2010,03,31,07,17,1.30
2010,03,31,07,18,1.30
2010,03,31,07,19,1.30
2010,03,31,07,20,1.30
2010,03,31,07,21,1.40
2010,03,31,07,22,1.40
2010,03,31,07,23,1.40
2010,03,31,07,24,1.40
2010,03,31,07,25,1.50
2010,03,31,07,26,1.50
2010,03,31,07,27,1.50
2010,03,31,07,28,1.50
2010,03,31,07,29,1.60
2010,03,31,07,30,1.60
2010,03,31,07,31,1.60
2010,03,31,07,32,1.60
2010,03,31,07,33,1.60
2010,03,31,07,34,1.60
2010,03,31,07,35,1.70
2010,03,31,07,36,1.70
2010,03,31,07,37,1.70
2010,03,31,07,38,1.80
2010,03,31,07,39,1.80
2010,03,31,07,40,1.80
2010,03,31,07,41,1.80
2010,03,31,07,42,1.80
2010,03,31,07,43,1.90
2010,03,31,07,44,1.90
2010,03,31,07,45,1.90
2010,03,31,07,46,1.90
2010,03,31,07,47,1.90
2010,03,31,07,48,1.90
2010,03,31,07,49,1.90
2010,03,31,07,50,2.00
2010,03,31,07,51,2.00
2010,03,31,07,52,2.00
2010,03,31,07,53,2.10
2010,03,31,07,54,2.10
2010,03,31,07,55,2.20
2010,03,31,07,56,2.20
2010,03,31,07,57,2.20
2010,03,31,07,58,2.30
2010,03,31,07,59,2.30
2010,03,31,08,00,2.30
2010,03,31,08,01,2.30
2010,03,31,08,02,2.30
2010,03,31,08,03,2.40
2010,03,31,08,04,2.40
2010,03,31,08,05,2.40
2010,03,31,08,06,2.40
2010,03,31,08,07,2.40
2010,03,31,08,08,2.50
2010,03,31,08,09,2.50
2010,03,31,08,10,2.50
2010,03,31,08,11,2.60
2010,03,31,08,12,2.60
2010,03,31,08,13,2.60
2010,03,31,08,14,2.60
2010,03,31,08,15,2.60
2010,03,31,08,16,2.70
2010,03,31,08,17,2.70
2010,03,31,08,18,2.70
2010,03,31,08,19,2.80
2010,03,31,08,20,2.80
2010,03,31,08,21,2.80
2010,03,31,08,22,2.80
2010,03,31,08,23,2.80
2010,03,31,08,24,2.90
2010,03,31,08,25,2.90
2010,03,31,08,26,2.90
2010,03,31,08,27,2.90
2010,03,31,08,28,2.90
2010,03,31,08,29,2.90
2010,03,31,08,30,2.90
2010,03,31,08,31,2.90
2010,03,31,08,32,2.90
2010,03,31,08,33,2.90
2010,03,31,08,34,2.90
2010,03,31,08,35,2.90
2010,03,31,08,36,2.90
2010,03,31,08,37,2.90
2010,03,31,08,38,2.90
2010,03,31,08,39,2.90
2010,03,31,08,40,2.90
2010,03,31,08,41,2.90
2010,03,31,08,42,2.90
2010,03,31,08,43,2.90
2010,03,31,08,44,2.90
2010,03,31,08,45,2.90
2010,03,31,08,46,2.90
2010,03,31,08,47,3.00
2010,03,31,08,48,3.00
2010,03,31,08,49,3.00
2010,03,31,08,50,3.10
2010,03,31,08,51,3.10
2010,03,31,08,52,3.20
2010,03,31,08,53,3.20
2010,03,31,08,54,3.30
2010,03,31,08,55,3.30
2010,03,31,08,56,3.40
2010,03,31,08,57,3.40
2010,03,31,08,58,3.50
2010,03,31,08,59,3.60
2010,03,31,09,00,3.70
2010,03,31,09,01,3.80
2010,03,31,09,02,3.90
2010,03,31,09,03,4.00
2010,03,31,09,04,4.10
2010,03,31,09,05,4.10
2010,03,31,09,06,4.20
2010,03,31,09,07,4.30
2010,03,31,09,08,4.40
2010,03,31,09,09,4.40
2010,03,31,09,10,4.50
2010,03,31,09,11,4.60
2010,03,31,09,12,4.60
2010,03,31,09,13,4.60
2010,03,31,09,14,4.70
2010,03,31,09,15,4.70
2010,03,31,09,16,4.80
2010,03,31,09,17,4.80
2010,03,31,09,18,4.90
2010,03,31,09,19,4.90
2010,03,31,09,20,5.00
2010,03,31,09,21,5.10
2010,03,31,09,22,5.10
2010,03,31,09,23,5.20
2010,03,31,09,24,5.20
2010,03,31,09,25,5.30
2010,03,31,09,26,5.30
2010,03,31,09,27,5.40
2010,03,31,09,28,5.50
2010,03,31,09,29,5.50
2010,03,31,09,30,5.70
2010,03,31,09,31,5.80
2010,03,31,09,32,6.00
2010,03,31,09,33,6.10
2010,03,31,09,34,6.20
2010,03,31,09,35,6.30
2010,03,31,09,36,6.30
2010,03,31,09,37,6.40
2010,03,31,09,38,6.50
2010,03,31,09,39,6.50
2010,03,31,09,40,6.60
2010,03,31,09,41,6.70
2010,03,31,09,42,6.70
2010,03,31,09,43,6.70
2010,03,31,09,44,6.70
2010,03,31,09,45,6.70
2010,03,31,09,46,6.70
2010,03,31,09,47,6.70
2010,03,31,09,48,6.80
2010,03,31,09,49,6.80
2010,03,31,09,50,6.80
2010,03,31,09,51,6.90
2010,03,31,09,52,6.90
2010,03,31,09,53,6.90
2010,03,31,09,54,6.90
2010,03,31,09,55,6.80
2010,03,31,09,56,6.80
2010,03,31,09,57,6.70
2010,03,31,09,58,6.70
2010,03,31,09,59,6.60
2010,03,31,10,00,6.60
2010,03,31,10,01,6.60
2010,03,31,10,02,6.50
2010,03,31,10,03,6.50
2010,03,31,10,04,6.50
2010,03,31,10,05,6.50
2010,03,31,10,06,6.50
2010,03,31,10,07,6.50
2010,03,31,10,08,6.50
2010,03,31,10,09,6.60
2010,03,31,10,10,6.60
2010,03,31,10,11,6.70
2010,03,31,10,12,6.80
2010,03,31,10,13,6.90
2010,03,31,10,14,6.90
2010,03,31,10,15,6.90
2010,03,31,10,16,7.00
2010,03,31,10,17,7.00
2010,03,31,10,18,7.10
2010,03,31,10,19,7.20
2010,03,31,10,20,7.20
2010,03,31,10,21,7.30
2010,03,31,10,22,7.30
2010,03,31,10,23,7.20
2010,03,31,10,24,7.20
2010,03,31,10,25,7.20
2010,03,31,10,26,7.20
2010,03,31,10,27,7.20
2010,03,31,10,28,7.20
2010,03,31,10,29,7.20
2010,03,31,10,30,7.30
2010,03,31,10,31,7.30
2010,03,31,10,32,7.40
2010,03,31,10,33,7.50
2010,03,31,10,34,7.50
2010,03,31,10,35,7.60
2010,03,31,10,36,7.70
2010,03,31,10,37,7.80
2010,03,31,10,38,7.90
2010,03,31,10,39,7.90
2010,03,31,10,40,8.00
2010,03,31,10,41,8.10
2010,03,31,10,42,8.10
2010,03,31,10,43,8.20
2010,03,31,10,44,8.20
2010,03,31,10,45,8.30
2010,03,31,10,46,8.40
2010,03,31,10,47,8.40
2010,03,31,10,48,8.50
2010,03,31,10,49,8.50
2010,03,31,10,50,8.60
2010,03,31,10,51,8.60
2010,03,31,10,52,8.60
2010,03,31,10,53,8.50
2010,03,31,10,54,8.50
2010,03,31,10,55,8.50
2010,03,31,10,56,8.60
2010,03,31,10,57,8.60
2010,03,31,10,58,8.60
2010,03,31,10,59,8.60
2010,03,31,11,00,8.60
2010,03,31,11,01,8.60
2010,03,31,11,02,8.50
2010,03,31,11,03,8.50
2010,03,31,11,04,8.50
2010,03,31,11,05,8.50
2010,03,31,11,06,8.40
2010,03,31,11,07,8.40
2010,03,31,11,08,8.40
2010,03,31,11,09,8.40
2010,03,31,11,10,8.40
2010,03,31,11,11,8.40
2010,03,31,11,12,8.40
2010,03,31,11,13,8.30
2010,03,31,11,14,8.30
2010,03,31,11,15,8.20
2010,03,31,11,16,8.20
2010,03,31,11,17,8.10
2010,03,31,11,18,8.00
2010,03,31,11,19,7.90
2010,03,31,11,20,7.90
2010,03,31,11,21,7.90
2010,03,31,11,22,7.90
2010,03,31,11,23,7.80
2010,03,31,11,24,7.80
2010,03,31,11,25,7.80
2010,03,31,11,26,7.80
2010,03,31,11,27,7.80
2010,03,31,11,28,7.70
2010,03,31,11,29,7.70
2010,03,31,11,30,7.60
2010,03,31,11,31,7.50
2010,03,31,11,32,7.50
2010,03,31,11,33,7.50
2010,03,31,11,34,7.50
2010,03,31,11,35,7.50
2010,03,31,11,36,7.50
2010,03,31,11,37,7.60
2010,03,31,11,38,7.60
2010,03,31,11,39,7.50
2010,03,31,11,40,7.50
2010,03,31,11,41,7.40
2010,03,31,11,42,7.40
2010,03,31,11,43,7.40
2010,03,31,11,44,7.40
2010,03,31,11,45,7.40
2010,03,31,11,46,7.40
2010,03,31,11,47,7.40
2010,03,31,11,48,7.50
2010,03,31,11,49,7.50
2010,03,31,11,50,7.50
2010,03,31,11,51,7.50
2010,03,31,11,52,7.60
2010,03,31,11,53,7.60
2010,03,31,11,54,7.60
2010,03,31,11,55,7.60
2010,03,31,11,56,7.70
2010,03,31,11,57,7.70
2010,03,31,11,58,7.70
2010,03,31,11,59,7.70
2010,03,31,12,00,7.70
2010,03,31,12,01,7.80
2010,03,31,12,02,7.80
2010,03,31,12,03,7.80
2010,03,31,12,04,7.90
2010,03,31,12,05,8.00
2010,03,31,12,06,8.10
2010,03,31,12,07,8.20
2010,03,31,12,08,8.20
2010,03,31,12,09,8.20
2010,03,31,12,10,8.30
2010,03,31,12,11,8.30
2010,03,31,12,12,8.40
2010,03,31,12,13,8.50
2010,03,31,12,14,8.60
2010,03,31,12,15,8.60
2010,03,31,12,16,8.70
2010,03,31,12,17,8.80
2010,03,31,12,18,8.70
2010,03,31,12,19,8.60
2010,03,31,12,20,8.60
2010,03,31,12,21,8.60
2010,03,31,12,22,8.80
2010,03,31,12,23,8.80
2010,03,31,12,24,8.90
2010,03,31,12,25,8.90
2010,03,31,12,26,8.90
2010,03,31,12,27,9.00
2010,03,31,12,28,9.00
2010,03,31,12,29,9.00
2010,03,31,12,30,9.00
2010,03,31,12,31,9.00
2010,03,31,12,32,9.00
2010,03,31,12,33,9.00
2010,03,31,12,34,9.10
2010,03,31,12,35,9.10
2010,03,31,12,36,9.10
2010,03,31,12,37,9.00
2010,03,31,12,38,8.80
2010,03,31,12,39,8.70
2010,03,31,12,40,8.60
2010,03,31,12,41,8.40
2010,03,31,12,42,8.30
2010,03,31,12,43,8.20
2010,03,31,12,44,8.00
2010,03,31,12,45,7.90
2010,03,31,12,46,7.80
2010,03,31,12,47,7.80
2010,03,31,12,48,7.70
2010,03,31,12,49,7.70
2010,03,31,12,50,7.60
2010,03,31,12,51,7.60
2010,03,31,12,52,7.50
2010,03,31,12,53,7.50
2010,03,31,12,54,7.60
2010,03,31,12,55,7.60
2010,03,31,12,56,7.70
2010,03,31,12,57,7.70
2010,03,31,12,58,7.80
2010,03,31,12,59,7.80
2010,03,31,13,00,7.70
2010,03,31,13,01,7.60
2010,03,31,13,02,7.50
2010,03,31,13,03,7.50
2010,03,31,13,04,7.60
2010,03,31,13,05,7.60
2010,03,31,13,06,7.70
2010,03,31,13,07,7.70
2010,03,31,13,08,7.70
2010,03,31,13,09,7.70
2010,03,31,13,10,7.70
2010,03,31,13,11,7.60
2010,03,31,13,12,7.60
2010,03,31,13,13,7.70
2010,03,31,13,14,7.80
2010,03,31,13,15,7.90
2010,03,31,13,16,8.10
2010,03,31,13,17,8.20
2010,03,31,13,18,8.40
2010,03,31,13,19,8.50
2010,03,31,13,20,8.60
2010,03,31,13,21,8.60
2010,03,31,13,22,8.60
2010,03,31,13,23,8.60
2010,03,31,13,24,8.60
2010,03,31,13,25,8.50
2010,03,31,13,26,8.40
2010,03,31,13,27,8.50
2010,03,31,13,28,8.60
2010,03,31,13,29,8.70
2010,03,31,13,30,8.80
2010,03,31,13,31,8.80
2010,03,31,13,32,8.90
2010,03,31,13,33,9.00
2010,03,31,13,34,9.10
2010,03,31,13,35,9.20
2010,03,31,13,36,9.20
2010,03,31,13,37,9.20
2010,03,31,13,38,9.20
2010,03,31,13,39,9.20
2010,03,31,13,40,9.20
2010,03,31,13,41,9.10
2010,03,31,13,42,9.10
2010,03,31,13,43,9.10
2010,03,31,13,44,9.10
2010,03,31,13,45,9.10
2010,03,31,13,46,9.00
2010,03,31,13,47,8.90
2010,03,31,13,48,8.80
2010,03,31,13,49,8.70
2010,03,31,13,50,8.80
2010,03,31,13,51,8.80
2010,03,31,13,52,9.00
2010,03,31,13,53,9.10
2010,03,31,13,54,9.10
2010,03,31,13,55,9.10
2010,03,31,13,56,9.20
2010,03,31,13,57,9.30
2010,03,31,13,58,9.30
2010,03,31,13,59,9.40
2010,03,31,14,00,9.40
2010,03,31,14,01,9.40
2010,03,31,14,02,9.30
2010,03,31,14,03,9.30
2010,03,31,14,04,9.30
2010,03,31,14,05,9.20
2010,03,31,14,06,9.20
2010,03,31,14,07,9.20
2010,03,31,14,08,9.10
2010,03,31,14,09,9.00
2010,03,31,14,10,8.80
2010,03,31,14,11,8.80
2010,03,31,14,12,8.90
2010,03,31,14,13,9.00
2010,03,31,14,14,9.10
2010,03,31,14,15,9.20
2010,03,31,14,16,9.30
2010,03,31,14,17,9.30
2010,03,31,14,18,9.30
2010,03,31,14,19,9.30
2010,03,31,14,20,9.30
2010,03,31,14,21,9.20
2010,03,31,14,22,9.10
2010,03,31,14,23,9.00
2010,03,31,14,24,8.90
2010,03,31,14,25,9.00
2010,03,31,14,26,9.00
2010,03,31,14,27,8.90
2010,03,31,14,28,9.00
2010,03,31,14,29,9.00
2010,03,31,14,30,9.10
2010,03,31,14,31,9.10
2010,03,31,14,32,9.00
2010,03,31,14,33,8.90
2010,03,31,14,34,9.00
2010,03,31,14,35,9.00
2010,03,31,14,36,8.80
2010,03,31,14,37,8.60
2010,03,31,14,38,8.50
2010,03,31,14,39,8.40
2010,03,31,14,40,8.30
2010,03,31,14,41,8.20
2010,03,31,14,42,8.20
2010,03,31,14,43,8.20
2010,03,31,14,44,8.20
2010,03,31,14,45,8.20
2010,03,31,14,46,8.20
2010,03,31,14,47,8.30
2010,03,31,14,48,8.40
2010,03,31,14,49,8.40
2010,03,31,14,50,8.50
2010,03,31,14,51,8.70
2010,03,31,14,52,8.90
2010,03,31,14,53,9.10
2010,03,31,14,54,9.30
2010,03,31,14,55,9.50
2010,03,31,14,56,9.60
2010,03,31,14,57,9.60
2010,03,31,14,58,9.70
2010,03,31,14,59,9.70
2010,03,31,15,00,9.80
2010,03,31,15,01,9.80
2010,03,31,15,02,9.90
2010,03,31,15,03,10.00
2010,03,31,15,04,10.10
2010,03,31,15,05,10.10
2010,03,31,15,06,10.10
2010,03,31,15,07,10.10
2010,03,31,15,08,10.10
2010,03,31,15,09,10.10
2010,03,31,15,10,10.00
2010,03,31,15,11,9.90
2010,03,31,15,12,9.80
2010,03,31,15,13,9.90
2010,03,31,15,14,9.90
2010,03,31,15,15,9.90
2010,03,31,15,16,9.90
2010,03,31,15,17,9.90
2010,03,31,15,18,9.80
2010,03,31,15,19,9.80
2010,03,31,15,20,9.70
2010,03,31,15,21,9.70
2010,03,31,15,22,9.60
2010,03,31,15,23,9.60
2010,03,31,15,24,9.50
2010,03,31,15,25,9.40
2010,03,31,15,26,9.30
2010,03,31,15,27,9.10
2010,03,31,15,28,9.10
2010,03,31,15,29,9.00
2010,03,31,15,30,9.00
2010,03,31,15,31,8.90
2010,03,31,15,32,8.90
2010,03,31,15,33,8.90
2010,03,31,15,34,8.90
2010,03,31,15,35,8.80
2010,03,31,15,36,8.70
2010,03,31,15,37,8.50
2010,03,31,15,38,8.30
2010,03,31,15,39,8.30
2010,03,31,15,40,8.20
2010,03,31,15,41,8.10
2010,03,31,15,42,8.00
2010,03,31,15,43,8.00
2010,03,31,15,44,8.00
2010,03,31,15,45,8.00
2010,03,31,15,46,8.10
2010,03,31,15,47,8.20
2010,03,31,15,48,8.30
2010,03,31,15,49,8.40
2010,03,31,15,50,8.60
2010,03,31,15,51,8.70
2010,03,31,15,52,8.80
2010,03,31,15,53,8.90
2010,03,31,15,54,8.90
2010,03,31,15,55,8.90
2010,03,31,15,56,8.90
2010,03,31,15,57,9.00
2010,03,31,15,58,9.10
2010,03,31,15,59,9.10
2010,03,31,16,00,9.20
2010,03,31,16,01,9.20
2010,03,31,16,02,9.20
2010,03,31,16,03,9.10
2010,03,31,16,04,9.10
2010,03,31,16,05,9.10
2010,03,31,16,06,9.10
2010,03,31,16,07,9.20
2010,03,31,16,08,9.20
2010,03,31,16,09,9.30
2010,03,31,16,10,9.40
2010,03,31,16,11,9.40
2010,03,31,16,12,9.30
2010,03,31,16,13,9.30
2010,03,31,16,14,9.20
2010,03,31,16,15,9.20
2010,03,31,16,16,9.20
2010,03,31,16,17,9.20
2010,03,31,16,18,9.20
2010,03,31,16,19,9.20
2010,03,31,16,20,9.30
2010,03,31,16,21,9.30
2010,03,31,16,22,9.30
2010,03,31,16,23,9.30
2010,03,31,16,24,9.30
2010,03,31,16,25,9.30
2010,03,31,16,26,9.30
2010,03,31,16,27,9.20
2010,03,31,16,28,9.10
2010,03,31,16,29,9.10
2010,03,31,16,30,9.10
2010,03,31,16,31,9.00
2010,03,31,16,32,9.00
2010,03,31,16,33,9.00
2010,03,31,16,34,9.10
2010,03,31,16,35,9.10
2010,03,31,16,36,9.10
2010,03,31,16,37,9.10
2010,03,31,16,38,9.10
2010,03,31,16,39,9.20
2010,03,31,16,40,9.20
2010,03,31,16,41,9.40
2010,03,31,16,42,9.50
2010,03,31,16,43,9.60
2010,03,31,16,44,9.50
2010,03,31,16,45,9.40
2010,03,31,16,46,9.30
2010,03,31,16,47,9.30
2010,03,31,16,48,9.20
2010,03,31,16,49,9.20
2010,03,31,16,50,9.20
2010,03,31,16,51,9.20
2010,03,31,16,52,9.20
2010,03,31,16,53,9.20
2010,03,31,16,54,9.10
2010,03,31,16,55,9.00
2010,03,31,16,56,8.90
2010,03,31,16,57,8.80
2010,03,31,16,58,8.80
2010,03,31,16,59,8.80
2010,03,31,17,00,8.80
2010,03,31,17,01,8.80
2010,03,31,17,02,8.70
2010,03,31,17,03,8.70
2010,03,31,17,04,8.60
2010,03,31,17,05,8.50
2010,03,31,17,06,8.50
2010,03,31,17,07,8.40
2010,03,31,17,08,8.40
2010,03,31,17,09,8.40
2010,03,31,17,10,8.40
2010,03,31,17,11,8.40
2010,03,31,17,12,8.40
2010,03,31,17,13,8.40
2010,03,31,17,14,8.50
2010,03,31,17,15,8.40
2010,03,31,17,16,8.40
2010,03,31,17,17,8.30
2010,03,31,17,18,8.30
2010,03,31,17,19,8.40
2010,03,31,17,20,8.40
2010,03,31,17,21,8.40
2010,03,31,17,22,8.50
2010,03,31,17,23,8.50
2010,03,31,17,24,8.60
2010,03,31,17,25,8.70
2010,03,31,17,26,8.80
2010,03,31,17,27,8.90
2010,03,31,17,28,9.00
2010,03,31,17,29,9.00
2010,03,31,17,30,9.10
2010,03,31,17,31,9.00
2010,03,31,17,32,8.90
2010,03,31,17,33,8.80
2010,03,31,17,34,8.80
2010,03,31,17,35,8.80
2010,03,31,17,36,8.70
2010,03,31,17,37,8.70
2010,03,31,17,38,8.60
2010,03,31,17,39,8.60
2010,03,31,17,40,8.60
2010,03,31,17,41,8.60
2010,03,31,17,42,8.60
2010,03,31,17,43,8.50
2010,03,31,17,44,8.50
2010,03,31,17,45,8.40
2010,03,31,17,46,8.40
2010,03,31,17,47,8.50
2010,03,31,17,48,8.50
2010,03,31,17,49,8.60
2010,03,31,17,50,8.60
2010,03,31,17,51,8.60
2010,03,31,17,52,8.50
2010,03,31,17,53,8.50
2010,03,31,17,54,8.50
2010,03,31,17,55,8.50
2010,03,31,17,56,8.50
2010,03,31,17,57,8.50
2010,03,31,17,58,8.60
2010,03,31,17,59,8.60
2010,03,31,18,00,8.60
2010,03,31,18,01,8.60
2010,03,31,18,02,8.60
2010,03,31,18,03,8.60
2010,03,31,18,04,8.60
2010,03,31,18,05,8.60
2010,03,31,18,06,8.60